Time,TemperatureF,DewpointF,PressureIn,WindDirection,WindDirectionDegrees,WindSpeedMPH,WindSpeedGustMPH,Humidity,HourlyPrecipIn,Conditions,Clouds,dailyrainin,SoftwareType,DateUTC
2013-07-19 00:01:00,67.0,57.0,-100.00,SW,220,12.0,17.0,69,-99.99,,,-99.99,,2013-07-19 08:01:00,
2013-07-19 00:11:00,67.0,57.0,-100.00,SW,220,12.0,17.0,69,-99.99,,,-99.99,,2013-07-19 08:11:00,
2013-07-19 00:20:00,66.0,55.0,-100.00,SW,230,9.0,14.0,68,-99.99,,,-99.99,,2013-07-19 08:20:00,
2013-07-19 00:43:00,67.0,56.0,-100.00,SSW,210,13.0,17.0,68,-99.99,,,-99.99,,2013-07-19 08:43:00,
2013-07-19 00:52:00,66.0,55.0,-100.00,SW,230,9.0,14.0,68,-99.99,,,-99.99,,2013-07-19 08:52:00,
2013-07-19 01:02:00,66.0,55.0,-100.00,SW,230,9.0,14.0,68,-99.99,,,-99.99,,2013-07-19 09:02:00,
2013-07-19 01:11:00,66.0,55.0,-100.00,SW,230,9.0,14.0,68,-99.99,,,-99.99,,2013-07-19 09:11:00,
2013-07-19 01:20:00,65.0,54.0,-100.00,SSW,195,10.0,16.0,68,-99.99,,,-99.99,,2013-07-19 09:20:00,
2013-07-19 01:43:00,66.0,55.0,-100.00,South,190,7.0,12.0,66,-99.99,,,-99.99,,2013-07-19 09:43:00,
2013-07-19 01:52:00,65.0,54.0,-100.00,SSW,195,10.0,16.0,68,-99.99,,,-99.99,,2013-07-19 09:52:00,
2013-07-19 02:01:00,65.0,54.0,-100.00,SSW,195,10.0,16.0,68,-99.99,,,-99.99,,2013-07-19 10:01:00,
2013-07-19 02:11:00,65.0,54.0,-100.00,SSW,195,10.0,16.0,68,-99.99,,,-99.99,,2013-07-19 10:11:00,
2013-07-19 02:43:00,65.0,54.0,-100.00,SSW,205,14.0,18.0,67,-99.99,,,-99.99,,2013-07-19 10:43:00,
2013-07-19 02:52:00,64.0,53.0,-100.00,SSW,205,6.0,11.0,68,-99.99,,,-99.99,,2013-07-19 10:52:00,
2013-07-19 03:02:00,64.0,53.0,-100.00,SSW,205,6.0,11.0,68,-99.99,,,-99.99,,2013-07-19 11:02:00,
2013-07-19 03:12:00,64.0,53.0,-100.00,SSW,205,6.0,11.0,68,-99.99,,,-99.99,,2013-07-19 11:12:00,
2013-07-19 03:33:00,63.0,53.0,-100.00,South,190,5.0,12.0,68,-99.99,,,-99.99,,2013-07-19 11:33:00,
2013-07-19 03:43:00,63.0,53.0,-100.00,South,190,5.0,12.0,68,-99.99,,,-99.99,,2013-07-19 11:43:00,
2013-07-19 04:01:00,63.0,53.0,-100.00,SE,145,6.0,10.0,69,-99.99,,,-99.99,,2013-07-19 12:01:00,
2013-07-19 04:12:00,63.0,53.0,-100.00,SE,145,6.0,10.0,69,-99.99,,,-99.99,,2013-07-19 12:12:00,
2013-07-19 04:43:00,63.0,52.0,-100.00,SW,220,6.0,14.0,66,-99.99,,,-99.99,,2013-07-19 12:43:00,
2013-07-19 05:02:00,63.0,51.0,-100.00,SW,220,6.0,16.0,66,-99.99,,,-99.99,,2013-07-19 13:02:00,
2013-07-19 05:11:00,63.0,51.0,-100.00,SW,220,6.0,16.0,66,-99.99,,,-99.99,,2013-07-19 13:11:00,
2013-07-19 05:20:00,63.0,51.0,-100.00,SSW,200,11.0,18.0,64,-99.99,,,-99.99,,2013-07-19 13:20:00,
2013-07-19 05:32:00,63.0,51.0,-100.00,SW,215,9.0,14.0,64,-99.99,,,-99.99,,2013-07-19 13:32:00,
2013-07-19 05:43:00,63.0,51.0,-100.00,SW,215,9.0,14.0,64,-99.99,,,-99.99,,2013-07-19 13:43:00,
2013-07-19 06:02:00,63.0,51.0,-100.00,SSW,200,11.0,18.0,64,-99.99,,,-99.99,,2013-07-19 14:02:00,
2013-07-19 06:11:00,63.0,51.0,-100.00,SSW,200,11.0,18.0,64,-99.99,,,-99.99,,2013-07-19 14:11:00,
2013-07-19 06:43:00,63.0,51.0,-100.00,SSW,205,11.0,18.0,62,-99.99,,,-99.99,,2013-07-19 14:43:00,
2013-07-19 07:02:00,63.0,50.0,-100.00,SW,215,6.0,16.0,63,-99.99,,,-99.99,,2013-07-19 15:02:00,
2013-07-19 07:11:00,63.0,50.0,-100.00,SW,215,6.0,16.0,63,-99.99,,,-99.99,,2013-07-19 15:11:00,
2013-07-19 07:43:00,62.0,50.0,-100.00,SSW,195,11.0,15.0,64,-99.99,,,-99.99,,2013-07-19 15:43:00,
2013-07-19 08:01:00,63.0,50.0,-100.00,South,190,7.0,-999.0,63,-99.99,,,-99.99,,2013-07-19 16:01:00,
2013-07-19 08:11:00,63.0,50.0,-100.00,South,190,7.0,-999.0,63,-99.99,,,-99.99,,2013-07-19 16:11:00,
2013-07-19 08:22:00,63.0,50.0,-100.00,SSW,200,11.0,17.0,61,-99.99,,,-99.99,,2013-07-19 16:22:00,
2013-07-19 08:32:00,63.0,50.0,-100.00,SSW,200,11.0,17.0,61,-99.99,,,-99.99,,2013-07-19 16:32:00,
2013-07-19 08:43:00,63.0,50.0,-100.00,SSW,200,11.0,17.0,61,-99.99,,,-99.99,,2013-07-19 16:43:00,
2013-07-19 08:52:00,64.0,49.0,-100.00,South,185,10.0,20.0,59,-99.99,,,-99.99,,2013-07-19 16:52:00,
2013-07-19 09:02:00,64.0,49.0,-100.00,South,185,10.0,20.0,59,-99.99,,,-99.99,,2013-07-19 17:02:00,
2013-07-19 09:12:00,64.0,49.0,-100.00,South,185,10.0,20.0,59,-99.99,,,-99.99,,2013-07-19 17:12:00,
2013-07-19 09:32:00,64.0,49.0,-100.00,South,175,8.0,12.0,57,-99.99,,,-99.99,,2013-07-19 17:32:00,
2013-07-19 09:43:00,64.0,49.0,-100.00,South,175,8.0,12.0,57,-99.99,,,-99.99,,2013-07-19 17:43:00,
2013-07-19 10:01:00,65.0,49.0,-100.00,South,190,9.0,15.0,56,-99.99,,,-99.99,,2013-07-19 18:01:00,
2013-07-19 10:11:00,65.0,49.0,-100.00,South,190,9.0,15.0,56,-99.99,,,-99.99,,2013-07-19 18:11:00,
2013-07-19 10:20:00,68.0,50.0,-100.00,SW,220,6.0,12.0,52,-99.99,,,-99.99,,2013-07-19 18:20:00,
2013-07-19 10:32:00,67.0,50.0,-100.00,West,280,3.0,11.0,56,-99.99,,,-99.99,,2013-07-19 18:32:00,
2013-07-19 10:42:00,67.0,50.0,-100.00,West,280,3.0,11.0,56,-99.99,,,-99.99,,2013-07-19 18:42:00,
2013-07-19 11:01:00,68.0,50.0,-100.00,SW,220,6.0,12.0,52,-99.99,,,-99.99,,2013-07-19 19:01:00,
2013-07-19 11:11:00,68.0,50.0,-100.00,SW,220,6.0,12.0,52,-99.99,,,-99.99,,2013-07-19 19:11:00,
2013-07-19 11:20:00,67.0,55.0,-100.00,NNW,345,5.0,7.0,65,-99.99,,,-99.99,,2013-07-19 19:20:00,
2013-07-19 11:43:00,67.0,54.0,-100.00,NNW,345,4.0,6.0,64,-99.99,,,-99.99,,2013-07-19 19:43:00,
2013-07-19 12:01:00,67.0,55.0,-100.00,NNW,345,5.0,7.0,65,-99.99,,,-99.99,,2013-07-19 20:01:00,
2013-07-19 12:11:00,67.0,55.0,-100.00,NNW,345,5.0,7.0,65,-99.99,,,-99.99,,2013-07-19 20:11:00,
2013-07-19 12:43:00,69.0,55.0,-100.00,North,0,3.0,6.0,61,-99.99,,,-99.99,,2013-07-19 20:43:00,
2013-07-19 13:01:00,69.0,51.0,-100.00,SSE,160,9.0,11.0,53,-99.99,,,-99.99,,2013-07-19 21:01:00,
2013-07-19 13:11:00,69.0,51.0,-100.00,SSE,160,9.0,11.0,53,-99.99,,,-99.99,,2013-07-19 21:11:00,
2013-07-19 13:42:00,72.0,51.0,-100.00,SSE,165,9.0,12.0,46,-99.99,,,-99.99,,2013-07-19 21:42:00,
2013-07-19 14:01:00,74.0,48.0,-100.00,NNW,340,6.0,12.0,38,-99.99,,,-99.99,,2013-07-19 22:01:00,
2013-07-19 14:11:00,74.0,48.0,-100.00,NNW,340,6.0,12.0,38,-99.99,,,-99.99,,2013-07-19 22:11:00,
2013-07-19 14:20:00,71.0,48.0,-100.00,WSW,255,10.0,13.0,43,-99.99,,,-99.99,,2013-07-19 22:20:00,
2013-07-19 14:42:00,73.0,49.0,-100.00,SW,235,6.0,10.0,43,-99.99,,,-99.99,,2013-07-19 22:42:00,
2013-07-19 15:01:00,71.0,48.0,-100.00,WSW,255,10.0,13.0,43,-99.99,,,-99.99,,2013-07-19 23:01:00,
2013-07-19 15:11:00,71.0,48.0,-100.00,WSW,255,10.0,13.0,43,-99.99,,,-99.99,,2013-07-19 23:11:00,
2013-07-19 15:20:00,71.0,49.0,-100.00,WSW,250,7.0,14.0,44,-99.99,,,-99.99,,2013-07-19 23:20:00,
2013-07-19 15:43:00,71.0,49.0,-100.00,WSW,255,6.0,14.0,44,-99.99,,,-99.99,,2013-07-19 23:43:00,
2013-07-19 16:01:00,71.0,49.0,-100.00,WSW,250,7.0,14.0,44,-99.99,,,-99.99,,2013-07-20 00:01:00,
2013-07-19 16:11:00,71.0,49.0,-100.00,WSW,250,7.0,14.0,44,-99.99,,,-99.99,,2013-07-20 00:11:00,
2013-07-19 16:20:00,71.0,51.0,-100.00,West,265,4.0,7.0,49,-99.99,,,-99.99,,2013-07-20 00:20:00,
2013-07-19 16:43:00,72.0,49.0,-100.00,West,265,6.0,13.0,44,-99.99,,,-99.99,,2013-07-20 00:43:00,
2013-07-19 17:01:00,71.0,51.0,-100.00,West,265,4.0,7.0,49,-99.99,,,-99.99,,2013-07-20 01:01:00,
2013-07-19 17:11:00,71.0,51.0,-100.00,West,265,4.0,7.0,49,-99.99,,,-99.99,,2013-07-20 01:11:00,
2013-07-19 17:20:00,69.0,55.0,-100.00,NNW,345,6.0,16.0,60,-99.99,,,-99.99,,2013-07-20 01:20:00,
2013-07-19 17:32:00,72.0,50.0,-100.00,WSW,240,7.0,14.0,45,-99.99,,,-99.99,,2013-07-20 01:32:00,
2013-07-19 18:01:00,69.0,55.0,-100.00,NNW,345,6.0,16.0,60,-99.99,,,-99.99,,2013-07-20 02:01:00,
2013-07-19 18:11:00,69.0,55.0,-100.00,NNW,345,6.0,16.0,60,-99.99,,,-99.99,,2013-07-20 02:11:00,
2013-07-19 18:32:00,71.0,57.0,-100.00,NNW,335,2.0,6.0,61,-99.99,,,-99.99,,2013-07-20 02:32:00,
2013-07-19 18:43:00,71.0,57.0,-100.00,NNW,335,2.0,6.0,61,-99.99,,,-99.99,,2013-07-20 02:43:00,
2013-07-19 19:02:00,72.0,56.0,-100.00,NNW,330,3.0,6.0,57,-99.99,,,-99.99,,2013-07-20 03:02:00,
2013-07-19 19:11:00,72.0,56.0,-100.00,NNW,330,3.0,6.0,57,-99.99,,,-99.99,,2013-07-20 03:11:00,
2013-07-19 19:44:00,72.0,55.0,-100.00,NW,320,4.0,17.0,55,-99.99,,,-99.99,,2013-07-20 03:44:00,
2013-07-19 19:52:00,71.0,53.0,-100.00,SW,235,3.0,8.0,54,-99.99,,,-99.99,,2013-07-20 03:52:00,
2013-07-19 20:01:00,71.0,53.0,-100.00,SW,235,3.0,8.0,54,-99.99,,,-99.99,,2013-07-20 04:01:00,
2013-07-19 20:11:00,71.0,53.0,-100.00,SW,235,3.0,8.0,54,-99.99,,,-99.99,,2013-07-20 04:11:00,
2013-07-19 20:33:00,67.0,53.0,-100.00,NNE,25,2.0,6.0,60,-99.99,,,-99.99,,2013-07-20 04:33:00,
2013-07-19 20:44:00,67.0,53.0,-100.00,NNE,25,2.0,6.0,60,-99.99,,,-99.99,,2013-07-20 04:44:00,
2013-07-19 21:02:00,67.0,53.0,-100.00,NNW,340,2.0,6.0,62,-99.99,,,-99.99,,2013-07-20 05:02:00,
2013-07-19 21:11:00,67.0,53.0,-100.00,NNW,340,2.0,6.0,62,-99.99,,,-99.99,,2013-07-20 05:11:00,
2013-07-19 21:20:00,67.0,54.0,-100.00,SW,225,6.0,10.0,62,-99.99,,,-99.99,,2013-07-20 05:20:00,
2013-07-19 21:32:00,65.0,53.0,-100.00,NE,35,4.0,6.0,64,-99.99,,,-99.99,,2013-07-20 05:32:00,
2013-07-19 21:52:00,67.0,54.0,-100.00,SW,225,6.0,10.0,62,-99.99,,,-99.99,,2013-07-20 05:52:00,
2013-07-19 22:01:00,67.0,54.0,-100.00,SW,225,6.0,10.0,62,-99.99,,,-99.99,,2013-07-20 06:01:00,
2013-07-19 22:11:00,67.0,54.0,-100.00,SW,225,6.0,10.0,62,-99.99,,,-99.99,,2013-07-20 06:11:00,
2013-07-19 22:43:00,67.0,53.0,-100.00,WSW,250,10.0,14.0,61,-99.99,,,-99.99,,2013-07-20 06:43:00,
2013-07-19 22:52:00,66.0,54.0,-100.00,SW,215,9.0,15.0,64,-99.99,,,-99.99,,2013-07-20 06:52:00,
2013-07-19 23:01:00,66.0,54.0,-100.00,SW,215,9.0,15.0,64,-99.99,,,-99.99,,2013-07-20 07:01:00,
2013-07-19 23:12:00,66.0,54.0,-100.00,SW,215,9.0,15.0,64,-99.99,,,-99.99,,2013-07-20 07:12:00,
2013-07-19 23:20:00,65.0,54.0,-100.00,SW,235,11.0,16.0,67,-99.99,,,-99.99,,2013-07-20 07:20:00,
2013-07-19 23:33:00,65.0,54.0,-100.00,WSW,240,9.0,12.0,65,-99.99,,,-99.99,,2013-07-20 07:33:00,
2013-07-19 23:44:00,65.0,54.0,-100.00,WSW,240,9.0,12.0,65,-99.99,,,-99.99,,2013-07-20 07:44:00,
2013-07-19 23:53:00,65.0,54.0,-100.00,SW,235,11.0,16.0,67,-99.99,,,-99.99,,2013-07-20 07:53:00,